Location: Little Baddow
(51.7333°N, 0.5667°E)
Time: 00:27:52
(UTC+00:00)

Cosmos 2333 Rocket - Pass Details

Date: 08 November 2025
Orbit: 837 x 865 km, 70.8° (Epoch: 04 December)

Event Time Altitude Azimuth Distance (km) Brightness Sun altitude
Exits shadow 03:39:28 43° 16° (NNE) 1,196 3.1 -31.7°
Drops below altitude 10° 03:43:19 10° 29° (NNE) 2,508 5.1 -31.1°
Sets 03:45:48 0° 31° (NNE) 3,451 6.0 -30.8°
